Content
SEND FEEDBACK

Daily
Averages
Monthly
Summary
Canada

ANCIENNE LORETTE, QUEBEC


Home > North America > Canada > Quebec
Elevation: 230 feet     Latitude: 46 48N     Longitude: 071 22W

WEATHER
 
SELECT A DAY
Number of Records: 192,604;   Date Range: 6/30/96 - 8/31/14
 
SHARE

PRINT THIS DATA

[ ← Previous Day ]
WEATHER ALMANAC - JULY 21, 2013
[ Next Day → ]
[ °C ]   °F
Weather ElementAverageHighLow
Temperature59.8 °F69.8 °F (3:00 pm)47 °F (5:00 am)
Dewpoint46.6 °F55.4 °F (3:00 pm)41 °F (9:00 am)
Humidity62 %94 % (5:00 am)28 % (5:00 pm)
Barometer29.97 in30.03 in (11:00 pm)29.85 in (1:00 am)
Wind Speed6.9 mph13.8 mph (6:00 pm)
Wind Gust18.4 mph (7:00 pm)
Weather ElementAverage
Visibility21.3 mi
Wind DirectionW (274.2 °)

Weather ElementTotal
Precipitation---
Heating Degree Days6.6 (Base 65)
Growing Degree Days8.4 (Base 50)
Averaged from 31 records on July 21, 2013
WEATHER CONDITIONS BREAKOUT
WIND DIRECTION BREAKOUT
WEATHER BY HOUR - JULY 21, 2013
[ °C ]   °F
Local TimeTemperatureDewpointHumidityBarometerVisibilityWind DirectionWind SpeedGust SpeedPrecipitationEventsConditions
1:00 AM55.4 °F48.2 °F77 %29.85 in15.0 miSE (140°)2.3 mphClear
2:00 AM54.0 °F48.0 °F73 %29.86 inWNW (290°)4.6 mph
2:00 AM53.6 °F46.4 °F77 %29.88 in15.0 miWest (280°)4.6 mphClear
3:00 AM50.0 °F46.4 °F87 %29.90 in15.0 miWNW (300°)5.8 mphClear
4:00 AM48.2 °F46.4 °F93 %29.92 in15.0 miWest (260°)5.8 mphClear
5:00 AM47.0 °F46.0 °F94 %29.94 inWest (280°)3.5 mph
5:00 AM48.2 °F44.6 °F87 %29.94 in15.0 miNW (320°)2.3 mphPartly Cloudy
6:00 AM48.2 °F46.4 °F93 %29.97 in25.0 miWNW (300°)3.5 mphPartly Cloudy
7:00 AM53.6 °F46.4 °F77 %29.99 in25.0 miNW (320°)5.8 mphPartly Cloudy
8:00 AM56.0 °F46.0 °F61 %29.98 inNNW (330°)5.8 mph
8:00 AM57.2 °F44.6 °F63 %30.00 in25.0 miNorth (350°)11.5 mphPartly Cloudy
9:00 AM59.0 °F41.0 °F51 %30.01 in25.0 miNNW (340°)9.2 mphPartly Cloudy
10:00 AM60.8 °F41.0 °F48 %30.02 in25.0 miNW (310°)6.9 mphPartly Cloudy
11:00 AM62.0 °F42.0 °F35 %29.99 inWNW (290°)8.1 mph
11:00 AM62.6 °F42.8 °F48 %30.01 in25.0 miWest (260°)9.2 mphPartly Cloudy
12:00 PM66.2 °F41.0 °F40 %30.01 in25.0 miWNW (300°)12.7 mphPartly Cloudy
1:00 PM66.2 °F41.0 °F40 %30.00 in25.0 miWNW (300°)9.2 mph17.3 mphPartly Cloudy
2:00 PM68.0 °F45.0 °F32 %29.97 inWNW (290°)6.9 mph
2:00 PM68.0 °F46.4 °F46 %29.99 in25.0 miWSW (240°)10.4 mph17.3 mphPartly Cloudy
3:00 PM69.8 °F55.4 °F60 %29.99 in25.0 miWest (270°)12.7 mphMostly Cloudy
4:00 PM68.0 °F53.6 °F60 %29.98 in25.0 miWest (280°)6.9 mphPartly Cloudy
5:00 PM69.0 °F44.0 °F28 %29.96 inWSW (250°)8.1 mph
5:00 PM69.8 °F53.6 °F56 %29.98 in25.0 miWSW (250°)9.2 mphPartly Cloudy
6:00 PM69.8 °F46.4 °F43 %29.98 in25.0 miSW (230°)13.8 mphPartly Cloudy
7:00 PM68.0 °F48.2 °F49 %29.99 in30.0 miSW (220°)10.4 mph18.4 mphPartly Cloudy
8:00 PM65.0 °F47.0 °F41 %29.96 inSW (230°)4.6 mph
8:00 PM64.4 °F48.2 °F56 %29.99 in15.0 miSW (220°)6.9 mphClear
9:00 PM59.0 °F50.0 °F72 %30.01 in15.0 miWSW (250°)4.6 mphClear
10:00 PM57.2 °F50.0 °F77 %30.02 in15.0 miWSW (250°)3.5 mphClear
11:00 PM53.0 °F50.0 °F86 %30.01 inWest (280°)2.3 mph
11:00 PM57.2 °F48.2 °F72 %30.03 in15.0 miWest (270°)3.5 mphClear
Hourly data recorded from CYQB, located miles away from Ancienne Lorette, Quebec







STORIES FROM OUR PARTNERS